FENGYUN 1C DEB

Satellite information

Favourite Embed

Satellite Type and Status

DEBRISIN ORBIT

Key statistics

Satellite FENGYUN 1C DEB at a glance.

Uptime

9495

Days in orbit

Revolutions

≈ 14.4

Per day

Orbit

SSO

Sun Synchronous Orbit

Inclination

99.3

Latest

Satellite identification and parameters

Extended collection of information and parameters for FENGYUN 1C DEB.

Object identification

Identified? True

Debris? True

Object name: FENGYUN 1C DEB

International designator: 1999-025DFZ

Object number (NORAD): 33688

Object ID (CCSDS): 33688

Country: PEOPLES REPUBLIC OF CHINA (PRC)

Current information (Y/N): Y

RCS size: SMALL

Orbital parameters

Period: 99.906 minutes

Inclination: 99.3494 deg

SMA: 7132.159 km

Apoapsis: 795.607 km

Periapsis: 712.442 km

RAAN: 205.1606 deg

Eccentricy: 0.0058303

Argument of periapsis: 192.5875 deg

Mean anomaly: 167.3858 deg

Mean motion: 14.41355877 rev/day

Mean motion (dot): 0.00010124 rev/day2

B* drag term: 0.0030756 1/REarth

Two-line elements (TLE)

Creation date: May 6, 2025, 3:54 a.m.

Reference frame: TEME

Reference center: EARTH

Epoch: May 5, 2025, 4:35 a.m. UTC

TLE line 0: 0 FENGYUN 1C DEB

TLE line 1: 1 33688U 99025DFZ 25125.19145293 .00010124 00000-0 30756-2 0 9993

TLE line 2: 2 33688 99.3494 205.1606 0058303 192.5875 167.3858 14.41355877882869

Live tracking on map

Real-time ground track for satellite FENGYUN 1C DEB.

In-orbit conjunctions

A list of the most updated potential collisions computed for object FENGYUN 1C DEB.

Target Orbit TCA Probability of collision Miss distance Type
FREGAT R/B LEO 2025-04-09 18:10:40 0.0001371871 230.0 (m) ROCKET BODY
JAWSAT SSO 2025-03-01 09:03:45 0.001101456 114.0 (m) PAYLOAD
CZ-6A DEB SSO 2024-09-25 15:30:36 0.0002207005 964.0 (m) DEBRIS
CZ-6A DEB SSO 2024-06-20 07:15:06 0.0003587297 53.0 (m) DEBRIS

Associated space launch

Chinese polar orbiting meteorological satellite

FENGYUN 1C DEB was lifted into orbit during the mission ‘Long March 4B | Feng Yun 1C’, on board a Long March 4B space rocket.

The launch took place on May 10, 1999, 1:33 a.m. from Launch Complex 7.

For more information about the launch, click the button.

Launch to space Long March 4B | Feng Yun 1C
Long March 4B | Feng Yun 1C

Agency: N/A

Status: Launch Successful

Launch date: May 10, 1999, 1:33 a.m. UTC

Rocket: Long March 4B

Launch pad: Launch Complex 7

Location: Taiyuan Satellite Launch Center, People's Republic of China

...

Latest news about this satellite

There are no fresh news available about this satellite. Check back as we update our databases every day.


Newsletter sign-up

Weekly statistics, charts and insights to help you stay on top of the space industry.